Regional Weather Roundup
Issued by NWS San Angelo, TX

Home | Current Version | Previous Version | Text Only | Print | Product List | Glossary On
Versions: 1 2 3 4 5 6 7 8 9 10 11 12 13 14 15 16 17 18 19 20 21 22 23 24 25 26 27 28 29 30 31 32 33 34 35 36 37 38 39 40 41 42 43 44 45 46 47 48 49 50
000
ASUS44 KSJT 120110
RWRSJT
WEST CENTRAL TEXAS REGIONAL WEATHER ROUNDUP
NATIONAL WEATHER SERVICE SAN ANGELO TX
800 PM CDT FRI JUL 11 2014

NOTE: "FAIR" INDICATES FEW OR NO CLOUDS BELOW 12,000 FEET WITH NO
SIGNIFICANT WEATHER AND/OR OBSTRUCTIONS TO VISIBILITY.

TXZ049-054-064>066-071>073-076>078-098-099-113-114-127-128-139-140-
154-155-168>170-120200
...LOCATIONS ACROSS WEST CENTRAL TEXAS...

CITY           SKY/WX    TMP DP  RH WIND       PRES   REMARKS
SAN ANGELO     PTCLDY    86  59  39 S14G20    30.07R
ABILENE        CLEAR     89  55  31 S17G25    30.06R
DYESS AFB      CLEAR     89  56  31 S21       30.04S
JUNCTION       CLEAR     87  59  38 S18       30.08R
SWEETWATER     CLEAR     85  56  36 S14G22    30.10S
BROWNWOOD      CLEAR     88  55  33 S9        30.07S HAZE
COLEMAN        CLEAR     89  50  25 S16G23    30.08R
SONORA         NOT AVBL
OZONA          FAIR      81  63  54 S13       30.11S
BRADY          CLEAR     88  55  33 SE12      30.09R
$$

TEXAS PANHANDLE/OKLAHOMA PANHANDLE

CITY           SKY/WX    TMP DP  RH WIND       PRES   REMARKS
AMARILLO       SUNNY     85  57  38 S16       30.08R
BORGER         SUNNY     90  55  30 S12G23    30.04R
CANADIAN       SUNNY     89  58  35 S15       30.02R
DALHART        SUNNY     88  50  27 S18       30.08R
DUMAS          CLEAR     87  53  31 S17       30.07R
GUYMON         NOT AVBL
HEREFORD       CLEAR     84  60  43 SE15G21   30.10R
PAMPA          CLEAR     85  54  34 S16       30.08R
PERRYTON       SUNNY     89  54  29 SE20G25   30.04R
$$

SOUTHERN PANHANDLE/SOUTH PLAINS/ROLLING PLAINS

CITY           SKY/WX    TMP DP  RH WIND       PRES   REMARKS
LUBBOCK        MOSUNNY   84  60  44 SE22      30.08R
SNYDER         PTCLDY    85  60  42 SE14G23   30.08R
CHILDRESS      CLEAR     88  62  41 S18G25    30.03R
SEMINOLE       CLEAR     82  59  46 SE17      30.09R
$$

PERMIAN BASIN

CITY           SKY/WX    TMP DP  RH WIND       PRES   REMARKS
MIDLAND        SUNNY     82  63  52 SE26      30.07R
ODESSA         MOSUNNY   81  62  52 S20G30    30.08R
WINK           MOSUNNY   84  61  45 SE16G25   30.01S
$$

FAR WEST/SOUTHWEST MOUNTAINS/TRANS PECOS

CITY           SKY/WX    TMP DP  RH WIND       PRES   REMARKS
ALPINE         PTCLDY    77  58  52 SE18G24   30.15R
DRYDEN           N/A     83  66  56 E15G28    30.03S
EL PASO        FAIR      94  44  17 E16       29.96R
FORT STOCKTON  SUNNY     79  63  57 SE23G37   30.04R
GUADALUPE PASS SUNNY     78  53  41 E25G33    30.15R
MARFA          MOSUNNY   75  59  57 SE22      30.13R
PECOS          PTCLDY    84  60  43 E26       29.99S
$$

DALLAS/FORT WORTH METROPLEX

CITY           SKY/WX    TMP DP  RH WIND       PRES   REMARKS
DFW AIRPORT    PTCLDY    92  56  29 S14       30.05R
FTW MEACHAM    CLEAR     91  59  33 S14       30.05R
DAL-EXECUTIVE  CLEAR     91  58  32 S8        30.06R
GRAND PRAIRIE  CLEAR     91  55  29 S9        30.07R
ADDISON        CLEAR     91  57  31 S10G20    30.06R
MESQUITE       CLEAR     90  61  37 SE8       30.06R
LANCASTER      CLEAR     87  57  35 S5        30.07R
$$

NORTH CENTRAL TEXAS

CITY           SKY/WX    TMP DP  RH WIND       PRES   REMARKS
SHRMAN/DENISON CLEAR     91  56  30 S9        30.07R
GAINESVILLE    CLEAR     89  60  37 S14G20    30.08R
BRIDGEPORT     CLEAR     89  53  29 S8        30.07S
DENTON         CLEAR     90  60  36 S12       30.05R
WAXAHACHIE     CLEAR     89  54  30 SE9       30.09R
GRANBURY       CLEAR     91  55  29 S9        30.07R
$$

WESTERN NORTH TEXAS

CITY           SKY/WX    TMP DP  RH WIND       PRES   REMARKS
WICHITA FALLS  CLEAR     90  58  33 S20G26    30.01R
VERNON         PTCLDY    93  58  31 S16       30.02R
BRECKENRIDGE   CLEAR     91  56  31 S13G23    30.05R HAZE
COMANCHE       CLEAR     87  61  40 SE15      30.08R
$$

CENTRAL AND SOUTH CENTRAL TEXAS

CITY           SKY/WX    TMP DP  RH WIND       PRES   REMARKS
AUSTIN/BERGSTM PTCLDY    88  59  37 S10       30.06R
WACO           CLEAR     89  61  38 SE9       30.07R
HILLSBORO      CLEAR     89  62  40 SE6       30.08R
TEMPLE         CLEAR     90  63  40 SE14      30.08R
KILLEEN-GRAY   PTCLDY    88  59  37 S7        30.08R
FORT HOOD      CLEAR     91  62  37 SE12G17   30.07R
GEORGETOWN     PTCLDY    90  63  40 SE8       30.07R
LAGO VISTA     FAIR      87  60  39 S8        30.10S
SAN MARCOS     CLEAR     88  59  37 S12       30.09R
NEW BRAUNFELS  CLEAR     87  64  46 SE14      30.07R
RANDOLPH AFB   CLEAR     88  60  39 SE15      30.08R
SAN ANTONIO    PTCLDY    88  63  43 SE20      30.07R
STINSON        PTCLDY    88  63  43 SE15      30.05R
PLEASANTON     NOT AVBL
LA GRANGE      CLEAR     88  68  50 SE3       30.06R
GIDDINGS       CLEAR     87  60  40 CALM      30.12R
$$

EAST TEXAS

CITY           SKY/WX    TMP DP  RH WIND       PRES   REMARKS
PARIS          CLEAR     88  64  45 S6        30.08R
CLARKSVILLE    PTCLDY    91  65  42 SE3       30.08R
TYLER          CLEAR     88  69  53 S5        30.09R
LONGVIEW       CLEAR     88  72  58 CALM      30.08R
PALESTINE      CLEAR     89  68  49 CALM      30.11R
NACOGDOCHES    CLEAR     88  72  58 SE6       30.10R
$$

TEXAS HILL COUNTRY AND EDWARDS PLATEAU

CITY           SKY/WX    TMP DP  RH WIND       PRES   REMARKS
LLANO          PTCLDY    88  54  31 S9G18     30.11R
HORSESHOE BAY  FAIR      87  59  39 SE8       30.09R
KERRVILLE      CLEAR     85  60  43 SE15G21   30.10R
FREDERICKSBRG  CLEAR     85  57  38 SE10G17   30.11R
ROCKSPRINGS    CLEAR     82  63  51 SE14G24   30.12R
HONDO          CLEAR     88  62  41 SE16      30.06R
UVALDE         PTCLDY    88  67  50 SE12      30.03R
DEL RIO        CLOUDY    77  69  76 S3        30.01R
$$

SOUTHEAST TEXAS

CITY           SKY/WX    TMP DP  RH WIND       PRES   REMARKS
COLLEGE STN    CLEAR     89  69  51 S7        30.08R
CALDWELL       PTCLDY    88  64  45 S9        30.11R
CROCKETT       CLEAR     90  79  70 CALM      30.12R
BRENHAM        CLEAR     88  69  53 S9        30.09R
HUNTSVILLE     CLEAR     86  70  58 S7        30.09R
CONROE         PTCLDY    83  71  67 S5        30.10R
HOUSTON BUSH   MOCLDY    84  72  67 NW3       30.08R
HOUSTON HOBBY  PTCLDY    86  70  58 S8        30.08R
PERLAND        CLEAR     87  71  58 SE8       30.10R
WHARTON        CLEAR     85  70  61 SE7       30.09R
$$

THE UPPER TEXAS COAST

CITY           SKY/WX    TMP DP  RH WIND       PRES   REMARKS
ORANGE         PTCLDY    86  72  62 S7        30.12R
PORT ARTHUR    PTCLDY    84  74  71 S7        30.10R
GALVESTON      CLEAR     85  74  69 S9        30.10R
ANGLETON       CLEAR     83  74  74 S6        30.09R
BAY CITY       CLEAR     86  74  66 SE6       30.08S
$$

TEXAS COASTAL BEND, RIO GRANDE PLAINS DEEP SOUTH TEXAS

CITY           SKY/WX    TMP DP  RH WIND       PRES   REMARKS
VICTORIA       CLEAR     85  73  67 S10       30.08R
BEEVILLE       FAIR      84  68  58 SE8G16    30.07R
ROCKPORT       PTCLDY    83  76  79 SE9       30.06S
PORT ARANSAS   MOCLDY    83  77  82 SE8       30.07R
PORT LAVACA    NOT AVBL
CORPUS CHRISTI PTCLDY    85  73  67 SE14      30.06R
KINGSVILLE NAS CLEAR     84  74  71 SE12      30.05S
COTULLA        PTCLDY    90  66  45 SE22      30.01R
LAREDO         MOCLDY    92  65  40 SE24      30.02R
BROWNSVILLE    PTCLDY    83  75  77 SE8       30.06R
PORT ISABEL    CLEAR     83  74  74 SE10      30.05S
HEBBRONVILLE   PTCLDY    88  64  44 SE15G24   30.05R
MCALLEN        PTCLDY    85  73  67 SE12      30.04R
WESLACO        CLEAR     84  71  64 SE12      30.04R HAZE
FALFURRIAS     PTCLDY    83  68  61 SE7       30.04R
EDINBURG       PTCLDY    86  71  60 SE8       30.04R
$$



USA.gov is the U.S. government's official web portal to all federal, state and local government web resources and services.